This is the latest recevied weather packets stored in our database for station/object JH5EWP-13. If no packets are shown the sender has not sent any weather packets the latest 10 day(s).
| Time | Temp. | Humidity | Pressure | Rain* | Wind** | Luminosity | Snow |
|---|---|---|---|---|---|---|---|
| 1778296882 | 23.33° C | 15% | 1008.1 hPa | 0 mm | - | - | - |
| 1778295982 | 23.33° C | 20% | 1008.1 hPa | 0 mm | - | - | - |
| 1778295083 | 22.78° C | 20% | 1008.3 hPa | 0 mm | - | - | - |
| 1778294184 | 22.78° C | 20% | 1008.5 hPa | 0 mm | - | - | - |
| 1778293284 | 22.22° C | 20% | 1008.7 hPa | 0 mm | - | - | - |
| 1778292384 | 22.22° C | 21% | 1008.7 hPa | 0 mm | - | - | - |
| 1778291484 | 22.22° C | 22% | 1009.1 hPa | 0 mm | - | - | - |
| 1778290584 | 21.67° C | 23% | 1009.1 hPa | 0 mm | - | - | - |
| 1778289684 | 21.11° C | 22% | 1009 hPa | 0 mm | - | - | - |
| 1778288784 | 21.67° C | 24% | 1009.2 hPa | 0 mm | - | - | - |
| 1778287884 | 21.11° C | 25% | 1009.1 hPa | 0 mm | - | - | - |
| 1778286984 | 21.11° C | 27% | 1008.9 hPa | 0 mm | - | - | - |
| 1778286083 | 21.11° C | 24% | 1009.1 hPa | 0 mm | - | - | - |
| 1778285184 | 21.67° C | 25% | 1009.2 hPa | 0 mm | - | - | - |
| 1778284283 | 21.67° C | 21% | 1009.4 hPa | 0 mm | - | - | - |
| 1778283383 | 21.67° C | 24% | 1009.3 hPa | 0 mm | - | - | - |
| 1778282483 | 21.67° C | 30% | 1009.6 hPa | 0 mm | - | - | - |
| 1778281583 | 21.11° C | 31% | 1009.6 hPa | 0 mm | - | - | - |
| 1778280684 | 20.56° C | 31% | 1009.2 hPa | 0 mm | - | - | - |
| 1778279783 | 19.44° C | 35% | 1009.6 hPa | 0 mm | - | - | - |
| 1778278883 | 18.89° C | 36% | 1009.4 hPa | 0 mm | - | - | - |
| 1778277983 | 18.33° C | 40% | 1009.3 hPa | 0 mm | - | - | - |
| 1778277083 | 16.67° C | 45% | 1009.2 hPa | 0 mm | - | - | - |
| 1778276183 | 15.56° C | 51% | 1009 hPa | 0 mm | - | - | - |
| 1778275283 | 14.44° C | 53% | 1008.7 hPa | 0 mm | - | - | - |
* Rain latest hour (hover to see other rain measurements)
** Current wind speed in m/s (hover to see current wind gust speed)